Lid_Strength_Index
-1 -1 -0 3 10 10 13 11 8 9 8 5 5 7 7 7 8 10 1 0 -0 -0 -1 -1 -1 -1 -1 -1 -1 -1 -1 -2 -2 -2 -1 -2 -2 -2 -2 -2 -2 -2 -2 -2 -2 -2 -2 -2 -1
-0 0 1 6 11 13 13 9 9 8 6 5 5 6 7 9 5 4 3 -0 -1 -1 -1 -1 -1 -1 -1 -1 -1 -1 -2 -2 -2 -2 -1 -1 -2 -1 -2 -2 -1 -2 -2 -2 -2 -2 -2 -2 -2
1 1 6 9 11 14 13 9 8 6 5 6 7 5 6 7 4 3 1 -0 -1 -1 -1 -1 -1 -1 -1 -1 -1 -1 -2 -1 -1 -1 -1 -2 -2 -1 -2 -2 -2 -2 -2 -2 -2 -2 -2 -2 -2
2 3 5 11 12 10 10 8 7 7 6 5 5 8 4 2 3 1 -0 -0 -0 -1 -1 -1 -1 -1 -1 -1 -1 -2 -1 -1 -1 -1 -1 -2 -2 -2 -2 -2 -2 -2 -2 -2 -2 -2 -2 -1 -2
2 5 11 12 12 9 7 6 6 7 7 7 6 8 6 3 1 0 0 -0 0 -0 -1 -1 -1 -1 -1 -1 -2 -1 -1 -1 -1 -2 -1 -2 -1 -2 -2 -2 -2 -2 -2 -2 -2 -2 -2 -2 -2
6 6 12 14 12 9 7 6 6 7 7 6 6 7 6 2 2 1 0 -0 -1 -0 -1 -1 -1 -1 -1 -1 -1 -1 -1 -1 -1 -1 -2 -2 -2 -1 -2 -2 -2 -2 -2 -2 -2 -2 -2 -2 -2
7 9 12 12 12 10 8 5 7 7 7 7 5 8 5 3 1 0 0 -0 -1 -1 -1 -1 -1 -1 -1 -1 -1 -1 -1 -1 -2 -2 -1 -2 -2 -2 -2 -2 -2 -2 -2 -2 -2 -2 -2 -1 -2
6 8 12 11 13 12 7 6 5 6 7 4 4 8 7 3 1 0 0 0 -0 -0 -1 -1 -1 -1 -1 -1 -1 -1 -1 -1 -1 -1 -1 -2 -2 -2 -2 -2 -2 -2 -2 -2 -2 -2 -2 -2 -2
4 11 13 12 12 11 7 8 5 4 6 5 4 4 3 2 1 1 2 1 1 0 -0 -1 -1 -1 -1 -1 -2 -2 -1 -2 -2 -2 -1 -2 -2 -2 -2 -2 -2 -2 -2 -2 -1 -2 -2 -1 -1
7 10 11 8 8 9 7 7 7 7 6 7 6 4 2 2 2 3 3 2 2 1 0 -0 -1 -1 -1 -1 -1 -3 -1 -2 -2 -2 -2 -2 -2 -2 -1 -2 -1 -1 -1 -1 -1 -1 -1 -1 -2
7 10 8 8 7 7 7 7 5 7 8 6 7 5 3 3 3 3 2 2 2 1 0 -0 -1 -1 -1 -1 -1 -1 -1 -1 -1 -2 -2 -2 -1 -1 -1 -1 -2 -2 -1 -2 -2 -2 -2 -1 -2
9 7 7 7 6 7 8 6 7 6 7 4 4 3 3 4 3 3 3 2 2 1 1 -0 -1 -1 -1 -1 -1 -1 -1 -1 -1 -1 -2 -1 -1 -1 -1 -1 -2 -2 -2 -2 -2 -2 -2 -2 -2
8 8 7 6 6 7 6 8 7 7 5 4 3 4 4 3 3 2 2 1 1 1 1 0 -1 -1 -1 -1 -1 -1 -1 -1 -1 -1 -2 -2 -1 -1 -1 -1 -1 -2 -2 -2 -2 -2 -1 -1 -1
7 7 7 7 7 7 8 8 7 7 4 5 4 4 4 3 3 2 2 2 2 1 1 -0 -0 -1 -1 -1 -1 -1 -1 -1 -1 -1 -2 -2 -2 -2 -2 -2 -2 -2 -2 -2 -2 -1 -1 -1 -1
7 9 8 8 7 8 7 10 10 6 5 5 5 4 4 3 3 3 2 2 1 1 0 0 -0 -1 -1 -1 -1 -1 -1 -1 -1 -1 -2 -2 -2 -2 -2 -1 -1 -1 -2 -2 -2 -2 -2 -1 -1
9 9 12 9 8 7 8 13 9 6 6 6 5 5 4 4 3 2 2 1 1 1 1 -0 -0 -0 -1 -1 -1 -1 -1 -1 -1 -1 -2 -2 -2 -2 -2 -1 -1 -2 -2 -2 -1 -1 -1 -1 -1
10 13 13 12 8 9 9 12 8 6 7 7 6 5 5 4 3 2 2 1 1 1 0 0 -0 -0 -0 -1 -1 -1 -1 -1 -1 -2 -2 -1 -1 -2 -2 -1 -1 -2 -2 -1 -1 -1 -1 -0 -0
12 13 12 13 10 9 11 11 9 7 7 7 6 5 5 4 4 2 2 1 1 0 0 0 0 -0 -1 -1 -1 -1 -1 -1 -1 -1 -1 -1 -2 -2 -1 -1 -2 -2 -1 -1 -1 -0 -1 -1 -1
9 11 12 11 9 10 11 11 10 8 8 7 7 6 5 4 3 2 2 1 1 1 1 0 0 -0 -0 0 1 1 1 -0 -0 -1 -1 -1 -1 -2 -1 -1 -2 -1 -1 -0 -1 -1 -0 0 -1
10 12 12 11 9 10 11 11 10 8 8 7 7 6 5 4 4 3 2 2 1 1 1 0 0 0 -0 -0 -0 -0 -0 -0 -1 -1 -1 -1 -1 -1 -1 -1 -1 -1 -1 -1 -1 -1 0 -0 -1
10 11 11 12 10 10 11 12 11 9 8 7 6 5 4 4 4 3 3 2 2 1 1 1 0 0 -0 -1 -0 -0 -0 -1 -0 -0 -0 -1 -1 -1 -1 -1 -2 -1 -1 -0 -1 -1 0 1 -0
10 9 10 11 12 14 11 18 12 10 9 8 7 6 5 4 4 3 3 3 2 1 1 0 0 0 -0 -1 -0 0 1 2 0 0 -1 -1 -1 -1 -1 -1 -1 -2 -1 -1 -1 -1 -1 -0 1
10 8 10 10 12 13 14 15 13 10 11 10 8 6 5 4 4 3 3 2 2 1 1 0 0 0 -0 -0 -0 1 0 0 0 -0 -0 -1 -1 -1 -1 -1 -1 -1 -1 -1 -1 -1 -1 -1 0
8 10 10 11 12 17 13 14 14 13 11 9 7 6 5 4 4 3 2 2 2 1 1 1 1 0 -0 -0 -0 0 0 0 1 1 1 0 -0 -1 -1 -1 -1 -1 -1 -1 -1 -1 -0 -1 -0
8 10 14 17 17 17 13 15 12 9 8 7 7 7 5 4 4 3 3 3 2 2 1 1 1 1 0 0 0 0 0 0 0 0 1 0 0 0 -0 -1 -1 -1 -1 -1 -1 -1 -1 -1 -0
9 9 13 19 18 16 13 16 12 8 6 6 6 5 5 5 4 4 3 3 2 2 2 1 1 1 0 0 0 -0 -0 0 0 -0 0 0 0 -0 -1 -1 -1 -1 -1 -1 -1 -1 -0 -1 -1
10 11 9 14 13 16 14 12 9 7 8 7 7 6 6 5 4 4 3 2 2 2 2 1 1 1 1 0 0 0 -0 -0 0 -0 -0 -0 -1 -0 -1 -1 -1 -1 -1 -1 -1 -0 -0 -1 -0
8 8 12 12 17 18 15 15 14 11 10 8 7 7 6 5 4 4 3 3 2 2 1 1 1 1 1 0 0 0 -0 -0 -0 -0 -0 -0 -1 -1 -1 -1 -1 -1 -1 -1 -1 -0 -1 -0 -0
10 11 10 11 13 16 16 14 10 11 9 9 7 6 6 6 5 4 3 2 2 1 1 1 1 1 1 1 0 0 0 -0 -0 -0 -0 -0 -1 -1 -1 -1 -1 -0 -0 -1 -0 -0 -0 -0 -0
9 9 9 12 13 13 14 12 8 8 8 7 7 6 5 4 4 4 3 3 2 2 2 2 1 1 1 0 0 0 0 -0 0 0 -0 -1 -0 -1 -1 -1 -0 -0 -0 -1 -0 -0 -0 0 0